Regional Weather Roundup
Issued by NWS Goodland, KS

Home | Current Version | Previous Version | Text Only | Print | Product List | Glossary On
Versions: 1 2 3 4 5 6 7 8 9 10 11 12 13 14 15 16 17 18 19 20 21 22 23 24 25 26 27 28 29 30 31 32 33 34 35 36 37 38 39 40 41 42 43 44 45 46 47 48 49 50
000
ASUS43 KGLD 250808
RWRGLD

GOODLAND FORECAST AREA HOURLY WEATHER ROUNDUP
NATIONAL WEATHER SERVICE GOODLAND KS
200 AM MDT MON JUL 25 2016

...OFFICIAL OBSERVATIONS...

CITY           SKY/WX    TMP DP  RH WIND       PRES   REMARKS
GOODLAND KS    PTCLDY    64  59  83 S8        30.12F
HILL CITY KS   CLOUDY    72  63  73 S5        30.07F
IMPERIAL NEB   CLOUDY    66  59  78 E6        30.15S
MCCOOK NEB     CLOUDY    67  60  78 E7        30.11F
AKRON CO       CLEAR     62  55  77 S12       30.20F
BURLINGTON CO  PTCLDY    61  57  87 S3        30.17F
LIMON CO       CLEAR     56  54  93 S6        30.28R
$$

...UNOFFICIAL OBSERVATIONS...

CITY           SKY/WX    TMP DP  RH WIND       PRES   REMARKS
COLBY KS       CLEAR     66  66 100 N16       30.14R
LENORA KS        N/A     69  32  25 MISG        N/A
NORTON KS      CLEAR     68  54  60 CALM      30.11R
SHARON SPRINGS   N/A     63  61  92 CALM        N/A
KIT CARSON CO    N/A     62  57  83 CALM        N/A
YUMA CO          N/A     60  57  91 CALM        N/A
$$



USA.gov is the U.S. government's official web portal to all federal, state and local government web resources and services.